{"data":{"norad_id":27875,"intl_designator":"2003-040A","name":"USA 170","alt_names":[],"object_type":"PAYLOAD","status":"ACTIVE","operator":null,"country":"US","launch_date":"2003-08-29","launch_site_code":"AFETR","launch_vehicle":null,"mission":null,"orbit_class":"UNKNOWN","rcs_meters":null,"size_class":null,"mass_kg":null,"dimensions":null,"purposes":["comms"],"wikipedia_slug":null,"has_3d_model":false,"image_url":null,"decayed_at":null,"tle_current":{"epoch":"2026-09-19T17:33:48.121344Z","epoch_age_seconds":81109,"freshness":"FRESH","line1":"1 27875U 03040A   26262.73180696  .00000125  00000+0  00000+0 0  9990","line2":"2 27875  10.6966  47.0219 0001624 161.2423  77.9227  1.00272734 33943","mean_motion":1.00272734,"eccentricity":0.0001624,"inclination_deg":10.6966,"raan_deg":47.0219,"arg_perigee_deg":161.2423,"mean_anomaly_deg":77.9227,"bstar":0,"rev_number":3394,"period_min":1436.0833125384,"perigee_km":35779.481414873,"apogee_km":35793.176433405,"semimajor_km":42164.465924139,"source":"CELESTRAK","updated_at":"2026-09-20T09:00:35.122244Z"}}}